#timestamp,LO_Frequency,Hit,StdDev 
1675054815.8,286047002.5,N
1675054835.6,286047000.3,N
1675054855.4,286047000.4,N
1675054875.3,286047001.1,N
1675054895.1,286047000.3,N
1675054896.0,286047000.3,N
1675054915.8,286046998.1,N
1675054935.7,286047001.2,N
1675054955.5,286047000.6,N
1675054975.3,286046998.1,N
1675054995.2,286047001.1,N
1675055015.9,286046998.2,N
1675055035.7,286046998.2,N
1675055055.6,286046998.4,N
1675055075.4,286046996.7,N
1675055095.2,286046997.9,N
1675055115.1,286046995.5,Y
1675055116.0,286046995.5,P
1675055135.8,286046997.5,N
1675055155.6,286046996.6,N
1675055175.5,286046997.2,N
1675055195.3,286046997.9,N
1675055215.1,286046996.1,Y
1675055235.9,286046996.5,P
1675055255.7,286046996.9,P
1675055275.5,286046999.6,N
1675055295.4,286046996.6,N
1675055315.2,286046997.4,N
1675055335.0,286046997.8,N
1675055335.9,286046997.8,N
1675055355.8,286046995.3,Y
1675055375.6,286047000.9,P
1675055395.4,286046999.7,N
1675055415.3,286047002.8,N
1675055435.1,286047000.1,N
1675055455.8,286047000.6,N
1675055475.7,286047000.3,N
1675055495.5,286047001.0,N
1675055515.3,286047000.4,N
1675055535.2,286047000.0,N
1675055555.0,286047000.6,N
1675055555.9,286047000.6,N
1675055575.7,286047000.7,N
1675055595.6,286046998.4,N
1675055615.4,286046999.6,N
1675055635.2,286046997.3,N
1675055655.1,286046996.6,N
1675055656.0,286046996.6,N
1675055675.8,286046999.0,N
1675055695.6,286046997.7,N
1675055715.5,286046996.6,N
1675055735.3,286046996.5,N
1675055755.1,286046997.8,N
1675055775.9,286046995.4,N
1675055795.7,286046994.2,Y
1675055815.5,286046995.0,P
1675055835.4,286046996.8,N
1675055855.2,286046996.7,N
1675055875.0,286046997.4,N
1675055875.9,286046997.4,N
1675055895.8,286046997.4,N
1675055915.6,286046997.1,N
1675055935.4,286046995.9,Y
1675055955.3,286046997.2,P
1675055975.1,286046997.9,P
1675055995.9,286046997.4,P
1675056015.7,286046996.5,Y
1675056035.5,286046999.3,P
1675056055.4,286046996.7,P
1675056075.2,286046995.3,P
1675056095.0,286046995.6,Y
1675056095.9,286046995.6,P
1675056115.8,286047001.2,N
1675056135.6,286046999.4,N
1675056155.4,286046998.4,N
1675056175.3,286046996.6,N
1675056195.1,286046998.6,N
1675056196.0,286046998.6,N
1675056215.8,286047000.7,N
1675056235.7,286047000.0,N
1675056255.5,286046999.1,N
1675056275.3,286046998.7,N
1675056295.2,286046999.5,N
1675056315.9,286046995.0,Y
1675056335.7,286046998.6,P
1675056355.6,286046997.2,P
1675056375.4,286046997.6,P
1675056395.2,286046996.5,Y
1675056415.1,286047000.6,P
1675056416.0,286047000.6,N
1675056435.8,286046998.3,N
1675056455.6,286046998.3,N
1675056475.5,286046998.2,N
1675056495.3,286046999.4,N
1675056515.1,286046999.5,N
1675056535.9,286046998.9,N
1675056555.7,286046998.6,N
1675056575.5,286046996.5,Y
1675056595.4,286046999.6,P
1675056615.2,286046997.4,P
1675056635.0,286046996.5,P
1675056635.9,286046996.5,N
1675056655.8,286046996.6,N
1675056675.6,286046998.5,N
1675056695.4,286046999.5,N
1675056715.3,286046998.2,N
1675056735.1,286047001.0,N
1675056755.9,286047001.2,N
1675056775.7,286047000.5,N
1675056795.5,286047000.1,N
1675056815.4,286046999.3,N
1675056835.2,286046999.0,N
1675056855.0,286046998.3,N
1675056855.9,286046998.3,N
1675056875.8,286047002.7,N
1675056895.6,286047000.5,N
1675056915.4,286047002.8,N
1675056935.3,286047002.8,N
1675056955.1,286047001.2,N
1675056956.0,286047001.2,N
1675056975.8,286046998.8,N
1675056995.7,286046998.7,N
1675057015.5,286046999.6,N
1675057035.3,286046998.1,N
1675057055.2,286047000.8,N
1675057075.9,286046998.7,N
1675057095.7,286046998.2,N
1675057115.6,286047000.7,N
1675057135.4,286047001.0,N
1675057155.2,286047002.8,N
1675057175.1,286046999.9,N
1675057176.0,286046999.9,N
1675057195.8,286047000.1,N
1675057215.6,286047001.9,N
1675057235.5,286047001.2,N
1675057255.3,286046998.8,N
1675057275.1,286046998.2,N
1675057295.9,286046998.2,N
1675057315.7,286047002.8,N
1675057335.5,286046998.4,N
1675057355.4,286047001.0,N
1675057375.2,286047001.0,N
1675057395.0,286047000.8,N
1675057395.9,286047000.8,N
1675057415.8,286047001.2,N
1675057435.6,286047000.5,N
1675057455.4,286047000.0,N
1675057475.3,286047002.6,N
1675057495.1,286047002.0,N
1675057515.8,286047002.5,N
1675057535.7,286047002.5,N
1675057555.5,286047004.4,N
1675057575.3,286047004.3,N
1675057595.2,286047002.1,N
1675057615.0,286047001.7,N
1675057615.9,286047001.7,N
1675057635.7,286047005.8,Y
1675057655.6,286047004.3,P
1675057675.4,286047002.4,N
1675057695.2,286047001.6,N
1675057715.1,286047002.4,N
1675057716.0,286047002.4,N
1675057735.8,286047002.4,N
1675057755.6,286047000.0,N
1675057775.5,286046999.7,N
1675057795.3,286047000.3,N
1675057815.1,286047000.6,N
1675057835.9,286046998.5,N
1675057855.7,286047002.8,N
1675057875.5,286047000.5,N
1675057895.4,286047001.0,N
1675057915.2,286047000.3,N
1675057935.0,286047002.7,N
1675057935.9,286047002.7,N
1675057955.8,286047000.7,N
1675057975.6,286047000.5,N
1675057995.4,286047002.5,N
1675058015.3,286047004.1,Y
1675058035.1,286047001.9,P
1675058055.8,286047002.7,P
1675058075.7,286047002.4,P
1675058095.5,286047001.7,Y
1675058115.4,286046999.7,P
1675058135.2,286047002.8,N
1675058155.0,286047002.7,N
1675058155.9,286047002.7,N
1675058175.8,286047001.9,N
1675058195.6,286047001.7,N
1675058215.4,286047003.8,Y
1675058235.3,286047002.3,P
1675058255.1,286047000.3,N
1675058256.0,286047000.3,N
1675058275.8,286047001.1,N
1675058295.7,286047000.7,N
1675058315.5,286047001.0,N
1675058335.3,286047000.2,N
1675058355.2,286047002.6,Y
1675058375.9,286047000.9,P
1675058395.7,286046999.8,P
